Location: Rounton
(54.4000°N, 1.3500°W)
Time: 02:23:36
(UTC+00:00)

Altair - Pass Details

Date: 04 December 2021
Orbit: 1501 x 1683 km, 47.2° (Epoch: 19 January)

Event Time Altitude Azimuth Distance (km) Brightness Sun altitude
Rises 21:29:15 0° 282° (WNW) 4,673 10.7 -47.8°
Reaches altitude 10° 21:32:44 10° 273° (W) 3,673 9.9 -48.2°
Enters shadow 21:36:36 23° 252° (WSW) 2,780 9.0 -48.7°
